Location: *
(50.2903°S, 172.5375°W)
Time: 00:20:36
(UTC+00:00)

Cosmos 1812 Rocket - Pass Details

Date: 17 November 2019
Orbit: 605 x 633 km, 82.5° (Epoch: 05 December)

Event Time Altitude Azimuth Distance (km) Brightness Sun altitude
Exits shadow 14:40:10 - 356° (N) 2,876 6.6 -7.3°
Rises 14:40:12 0° 356° (N) 2,866 6.5 -7.3°
Reaches altitude 10° 14:42:24 10° 358° (N) 1,972 5.7 -7.1°
Maximum altitude 14:46:45 75° 82° (E) 647 3.8 -6.5°
Drops below altitude 10° 14:51:12 10° 167° (SSE) 2,013 7.1 -6.0°
Sets 14:53:28 0° 168° (SSE) 2,932 7.9 -5.7°
